This demonstration page uses our WeatherBlox Daily Observations layout. Learn more.

Hourly Observations for March 13, 2018

Temp ( °F °C ) Dew Point ( °F °C ) Humidity (%) Winds ( mph kmh ) Pressure ( in mb ) Visibility ( mi km ) Precip ( " mm )
12:15 am 00:15 Clear 27 -3 15 -9.3 62 62 ENE 6 9 30.45 1031 10 16.0934 0 0
12:35 am 00:35 Clear 27 -2.7 16 -9.1 62 62 NE 3 6 30.45 1031 10 16.0934 0 0
12:55 am 00:55 Clear 25 -4.1 15 -9.5 66 66 Calm 30.48 1032 10 16.0934 0 0
1:15 am 01:15 Clear 26 -3.6 15 -9.2 66 66 Calm 30.5 1033 10 16.0934 0 0
1:35 am 01:35 Clear 24 -4.7 15 -9.3 71 71 N 5 7 30.5 1033 10 16.0934 0 0
1:55 am 01:55 Clear 23 -5.2 15 -9.3 73 73 N 5 7 30.5 1033 10 16.0934 0 0
2:15 am 02:15 Clear 23 -5.1 15 -9.2 73 73 NNE 5 7 30.5 1033 10 16.0934 0 0
2:35 am 02:35 Clear 23 -5 17 -8.5 77 77 NNE 6 9 30.5 1033 10 16.0934 0 0
2:55 am 02:55 Clear 25 -3.8 19 -7.5 76 76 NNE 5 7 30.5 1033 10 16.0934 0 0
3:15 am 03:15 Clear 24 -4.2 18 -7.6 77 77 NNE 5 7 30.5 1033 10 16.0934 0 0
3:35 am 03:35 Clear 24 -4.5 19 -7.4 80 80 N 7 11 30.5 1033 10 16.0934 0 0
3:55 am 03:55 Clear 23 -5.2 18 -7.9 82 82 Calm 30.5 1033 10 16.0934 0 0
4:15 am 04:15 Clear 20 -6.5 17 -8.6 85 85 NNW 3 6 30.53 1034 10 16.0934 0 0
4:35 am 04:35 Clear 20 -6.6 16 -9.1 83 83 NW 3 6 30.56 1035 10 16.0934 0 0
4:55 am 04:55 Clear 20 -6.4 16 -8.7 84 84 NW 3 6 30.56 1035 10 16.0934 0 0
5:15 am 05:15 Clear 20 -6.6 16 -8.7 85 85 NW 3 6 30.56 1035 10 16.0934 0 0
5:35 am 05:35 Clear 20 -6.8 17 -8.6 87 87 NNW 3 6 30.56 1035 10 16.0934 0 0
5:55 am 05:55 Clear 19 -7 17 -8.4 90 90 N 5 7 30.56 1035 10 16.0934 0 0
6:15 am 06:15 Clear 19 -7.3 17 -8.4 92 92 N 7 11 30.56 1035 10 16.0934 0 0
6:35 am 06:35 Clear 18 -7.8 16 -8.8 93 93 NNE 8 13 30.59 1036 10 16.0934 0 0
6:55 am 06:55 Clear 19 -7.2 18 -7.9 95 95 NNE 7 11 30.59 1036 10 16.0934 0 0
7:15 am 07:15 Clear 20 -6.5 19 -7.1 96 96 N 3 6 30.59 1036 10 16.0934 0 0
7:35 am 07:35 Clear 20 -6.5 19 -7.1 96 96 N 5 7 30.59 1036 10 16.0934 0 0
7:55 am 07:55 Sunny with Mist and Fog 20 -6.8 19 -7.5 95 95 N 5 7 30.59 1036 4 6.43736 0 0
8:15 am 08:15 Sunny 20 -6.9 19 -7.4 96 96 Calm 30.62 1037 7 11.26538 0 0
8:35 am 08:35 Sunny 21 -5.9 20 -6.7 94 94 NNW 3 6 30.62 1037 10 16.0934 0 0
8:55 am 08:55 Sunny 21 -6.1 19 -7.1 93 93 Calm 30.62 1037 10 16.0934 0 0
9:15 am 09:15 Sunny 24 -4.2 22 -5.5 91 91 NW 3 6 30.59 1036 10 16.0934 0 0
9:35 am 09:35 Sunny 28 -2.2 24 -4.2 86 86 N 5 7 30.56 1035 10 16.0934 0 0
9:55 am 09:55 Sunny 30 -0.9 23 -5.1 73 73 N 6 9 30.56 1035 10 16.0934 0 0
10:15 am 10:15 Sunny 32 0 22 -5.5 67 67 N 3 6 30.56 1035 10 16.0934 0 0
10:35 am 10:35 Sunny 34 1.2 17 -8.5 49 49 NE 3 6 30.53 1034 10 16.0934 0 0
10:55 am 10:55 Sunny 36 2.2 13 -10.6 39 39 Calm 30.53 1034 10 16.0934 0 0
11:15 am 11:15 Sunny 38 3.4 13 -10.4 36 36 NNE 5 7 30.53 1034 10 16.0934 0 0
11:35 am 11:35 Sunny 39 3.8 11 -11.8 31 31 Calm 30.5 1033 10 16.0934 0 0
11:55 am 11:55 Sunny 40 4.6 10 -12.5 28 28 Calm 30.48 1032 10 16.0934 0 0
12:15 pm 12:15 Sunny 42 5.5 10 -12.1 27 27 NW 3 6 30.48 1032 10 16.0934 0 0
12:35 pm 12:35 Sunny 42 5.8 13 -10.7 30 30 NNE 3 6 30.48 1032 10 16.0934 0 0
12:55 pm 12:55 Sunny 44 6.9 15 -9.5 30 30 NE 3 6 30.45 1031 10 16.0934 0 0
1:15 pm 13:15 Sunny 45 7.2 15 -9.3 30 30 Calm 30.42 1030 10 16.0934 0 0
1:35 pm 13:35 Sunny 46 7.9 16 -8.9 30 30 Calm 30.42 1030 10 16.0934 0 0
1:55 pm 13:55 Sunny 46 8 17 -8.4 31 31 N 5 7 30.42 1030 10 16.0934 0 0
2:15 pm 14:15 Sunny 47 8.5 17 -8.3 30 30 Calm 30.39 1029 10 16.0934 0 0
2:35 pm 14:35 Sunny 48 9 17 -8.1 29 29 NNE 3 6 30.39 1029 10 16.0934 0 0
2:55 pm 14:55 Sunny 48 9.1 17 -8.2 29 29 N 5 7 30.36 1028 10 16.0934 0 0
3:15 pm 15:15 Sunny 49 9.6 18 -8 28 28 N 3 6 30.36 1028 10 16.0934 0 0
3:35 pm 15:35 Sunny 49 9.6 18 -7.9 29 29 NNE 5 7 30.33 1027 10 16.0934 0 0
3:55 pm 15:55 Sunny 49 9.3 17 -8.2 28 28 Calm 30.33 1027 10 16.0934 0 0
4:15 pm 16:15 Sunny 50 10.1 18 -7.9 28 28 N 5 7 30.33 1027 10 16.0934 0 0
4:35 pm 16:35 Sunny 50 10.2 18 -7.8 28 28 NW 5 7 30.33 1027 10 16.0934 0 0
4:55 pm 16:55 Sunny 50 10 18 -7.9 28 28 NNW 3 6 30.33 1027 10 16.0934 0 0
5:15 pm 17:15 Sunny 51 10.5 18 -7.7 27 27 Calm 30.33 1027 10 16.0934 0 0
5:35 pm 17:35 Sunny 50 10.1 17 -8.2 27 27 Calm 30.3 1026 10 16.0934 0 0
5:55 pm 17:55 Sunny 50 10 17 -8.2 27 27 SSE 3 6 30.3 1026 10 16.0934 0 0
6:15 pm 18:15 Sunny 50 10 18 -7.9 28 28 Calm 30.3 1026 10 16.0934 0 0
6:35 pm 18:35 Sunny 50 9.8 18 -8 28 28 Calm 30.3 1026 10 16.0934 0 0
6:55 pm 18:55 Sunny 49 9.4 17 -8.3 28 28 E 3 6 30.3 1026 10 16.0934 0 0
7:15 pm 19:15 Sunny 48 8.8 17 -8.6 29 29 SE 3 6 30.3 1026 10 16.0934 0 0
7:35 pm 19:35 Sunny 44 6.5 15 -9.5 31 31 ESE 6 9 30.33 1027 10 16.0934 0 0
7:55 pm 19:55 Clear 38 3.3 12 -10.9 35 35 ESE 6 9 30.36 1028 10 16.0934 0 0
8:15 pm 20:15 Clear 34 0.9 10 -12.1 38 38 SE 6 9 30.39 1029 10 16.0934 0 0
8:35 pm 20:35 Clear 36 2.2 11 -11.7 35 35 SE 6 9 30.36 1028 10 16.0934 0 0
8:55 pm 20:55 Clear 36 2.4 10 -12 34 34 SSE 5 7 30.36 1028 10 16.0934 0 0
9:15 pm 21:15 Clear 35 1.8 9 -13 33 33 S 6 9 30.39 1029 10 16.0934 0 0
9:35 pm 21:35 Clear 34 0.9 8 -13.3 34 34 S 6 9 30.39 1029 10 16.0934 0 0
9:55 pm 21:55 Clear 32 0 8 -13.3 36 36 S 6 9 30.36 1028 10 16.0934 0 0
10:15 pm 22:15 Clear 32 0.1 8 -13.3 36 36 SSE 6 9 30.36 1028 10 16.0934 0 0
10:35 pm 22:35 Clear 29 -1.9 8 -13.6 41 41 SSE 5 7 30.39 1029 10 16.0934 0 0
10:55 pm 22:55 Clear 30 -1.1 8 -13.5 39 39 SSE 5 7 30.36 1028 10 16.0934 0 0
11:15 pm 23:15 Clear 30 -1.1 8 -13.6 38 38 S 6 9 30.36 1028 10 16.0934 0 0
11:35 pm 23:35 Clear 32 0 9 -13 37 37 S 8 13 30.36 1028 10 16.0934 0 0
11:55 pm 23:55 Clear 36 2.4 9 -13 31 31 S 8 13 30.33 1027 10 16.0934 0 0

Powered by AerisWeather